Weather History for Indianapolis, IN

Change the Weather History Date:

Thursday, June 13, 2013

  Actual Average (KEYE) Record (KEYE)
Temperature  
Mean Temperature 72 °F 72 °F  
Max Temperature 82 °F 81 °F 91 °F (2007)
Min Temperature 62 °F 63 °F 53 °F (2012)
Degree Days  
Heating Degree Days 0 0  
Month to date heating degree days 12  
Since 1 June heating degree days 12  
Since 1 July heating degree days 5346  
Cooling Degree Days 7 7  
Month to date cooling degree days 79  
Year to date cooling degree days 163  
Since 1 June cooling degree days 79  
Growing Degree Days 22 (Base 50)    
Moisture  
Dew Point 60 °F    
Average Humidity 68    
Maximum Humidity 89    
Minimum Humidity 43    
Precipitation  
Precipitation 1.04 in 0.15 in 1.40 in (2002)
Month to date precipitation 1.93  
Year to date precipitation 18.74  
Sea Level Pressure  
Sea Level Pressure 29.83 in    
Wind  
Wind Speed 14 mph (NNW)    
Max Wind Speed 22 mph    
Max Gust Speed 30 mph    
Visibility 10 miles    
Events Rain , Thunderstorm    
T = Trace of Precipitation, MM = Missing Value Source: NWS Daily Summary

Daily Weather History Graph

Daily Weather History Graph

Search for Another Location

Airport:

Trip Planner

Search our weather history database for the weather conditions in past years. The results will help you decide how hot, cold, wet, or windy it might be!

Date:

Astronomy

Jun. 13, 2013 Rise Set
Actual Time 6:15 AM EDT 9:14 PM EDT
Civil Twilight 5:42 AM EDT 9:47 PM EDT
Nautical Twilight 5:01 AM EDT 10:29 PM EDT
Astronomical Twilight 4:12 AM EDT 11:17 PM EDT
Moon 10:51 AM EDT (6/13) No Moon Set
Length of Visible Light 16h 05m
Length of Day
14h 59m
Waxing Crescent, 21% of the Moon is Illuminated
Jun 13
Waxing Crescent
Jun 16
First Quarter
Jun 23
Full
Jun 30
Last Quarter
Jul 8
New

Hourly Weather History & Observations

Time (EDT) Temp. Heat Index Dew Point Humidity Pressure Visibility Wind Dir Wind Speed Gust Speed Precip Events Conditions
12:15 AM 82.9 °F 86.0 °F 68.2 °F 61% 29.66 in 10.0 mi SSW 20.7 mph 25.3 mph N/A   Mostly Cloudy
12:35 AM 82.6 °F 85.7 °F 68.5 °F 62% 29.66 in 10.0 mi SW 21.9 mph 27.6 mph N/A   Mostly Cloudy
12:55 AM 82.6 °F 85.7 °F 68.5 °F 62% 29.66 in 10.0 mi SW 20.7 mph 27.6 mph N/A Thunderstorm Scattered Clouds
1:15 AM 82.4 °F 85.6 °F 68.7 °F 63% 29.65 in 10.0 mi SW 21.9 mph 29.9 mph N/A Thunderstorm Scattered Clouds
1:35 AM 82.2 °F 85.5 °F 68.9 °F 64% 29.65 in 10.0 mi SW 17.3 mph 26.5 mph N/A   Mostly Cloudy
1:55 AM 81.9 °F 85.2 °F 68.9 °F 65% 29.65 in 10.0 mi SW 18.4 mph 29.9 mph N/A   Mostly Cloudy
2:15 AM 82.2 °F 85.5 °F 68.9 °F 64% 29.65 in 10.0 mi WSW 17.3 mph 25.3 mph N/A   Mostly Cloudy
2:35 AM 81.9 °F 85.2 °F 68.9 °F 65% 29.64 in 10.0 mi WSW 17.3 mph 27.6 mph N/A Thunderstorm Thunderstorm
2:55 AM 79.5 °F - 69.6 °F 72% 29.69 in 7.0 mi NNW 21.9 mph 29.9 mph 0.04 in Rain , Thunderstorm Light Thunderstorms and Rain
3:15 AM 73.2 °F - 67.1 °F 81% 29.67 in 10.0 mi NW 5.8 mph - 0.01 in   Overcast
3:35 AM 72.3 °F - 66.7 °F 83% 29.66 in 10.0 mi NNW 5.8 mph - 0.02 in Rain , Thunderstorm Light Thunderstorms and Rain
3:55 AM 71.8 °F - 66.4 °F 83% 29.68 in 10.0 mi Calm Calm - 0.05 in Rain , Thunderstorm Light Thunderstorms and Rain
4:15 AM 71.2 °F - 66.2 °F 84% 29.68 in 10.0 mi SSE 3.5 mph - N/A Thunderstorm Thunderstorm
4:35 AM 70.9 °F - 66.4 °F 86% 29.69 in 10.0 mi Calm Calm - N/A   Mostly Cloudy
4:55 AM 71.1 °F - 67.1 °F 87% 29.67 in 10.0 mi SSW 5.8 mph - N/A   Mostly Cloudy
5:15 AM 70.9 °F - 67.1 °F 88% 29.67 in 10.0 mi South 3.5 mph - N/A   Scattered Clouds
5:35 AM 70.7 °F - 66.7 °F 87% 29.66 in 10.0 mi Calm Calm - N/A   Clear
5:55 AM 70.0 °F - 66.4 °F 88% 29.63 in 7.0 mi South 3.5 mph - N/A   Clear
6:15 AM 70.3 °F - 67.1 °F 89% 29.67 in 5.0 mi SW 11.5 mph - 0.06 in Rain , Thunderstorm Heavy Thunderstorms and Rain
6:35 AM 66.9 °F - 63.1 °F 88% 29.68 in 1.8 mi NNE 5.8 mph 21.9 mph 0.59 in Rain , Thunderstorm Heavy Thunderstorms and Rain
6:55 AM 68.2 °F - 64.4 °F 88% 29.70 in 5.0 mi NNW 10.4 mph - 0.69 in Rain Heavy Rain
7:15 AM 68.9 °F - 64.9 °F 87% 29.73 in 4.0 mi NW 13.8 mph - 0.13 in Rain , Thunderstorm Thunderstorms and Rain
7:35 AM 68.4 °F - 64.6 °F 88% 29.72 in 5.0 mi NNW 15.0 mph 21.9 mph 0.25 in Rain Light Rain
7:55 AM 68.0 °F - 63.9 °F 87% 29.72 in 10.0 mi North 9.2 mph - 0.26 in Rain Light Rain
8:15 AM 68.0 °F - 64.0 °F 87% 29.72 in 10.0 mi North 13.8 mph 19.6 mph N/A   Mostly Cloudy
8:35 AM 68.0 °F - 63.7 °F 86% 29.74 in 10.0 mi NNW 17.3 mph 20.7 mph N/A   Mostly Cloudy
8:55 AM 67.5 °F - 62.6 °F 84% 29.76 in 10.0 mi NNW 16.1 mph 23.0 mph N/A   Overcast
9:15 AM 66.6 °F - 61.3 °F 83% 29.77 in 10.0 mi North 13.8 mph 21.9 mph N/A   Overcast
9:35 AM 66.6 °F - 61.3 °F 83% 29.79 in 10.0 mi NNW 11.5 mph - N/A   Overcast
9:55 AM 66.2 °F - 61.3 °F 84% 29.79 in 10.0 mi NNW 15.0 mph 19.6 mph N/A   Overcast
10:15 AM 66.7 °F - 61.3 °F 83% 29.80 in 10.0 mi North 12.7 mph 18.4 mph N/A   Overcast
10:35 AM 67.1 °F - 61.5 °F 82% 29.82 in 10.0 mi North 13.8 mph - N/A   Overcast
10:55 AM 67.6 °F - 61.7 °F 81% 29.83 in 10.0 mi North 13.8 mph 19.6 mph N/A   Overcast
11:15 AM 67.5 °F - 61.9 °F 82% 29.84 in 10.0 mi NNW 12.7 mph 20.7 mph N/A   Overcast
11:35 AM 67.6 °F - 61.7 °F 81% 29.86 in 10.0 mi NNW 16.1 mph 20.7 mph N/A   Overcast
11:55 AM 68.9 °F - 61.5 °F 77% 29.87 in 10.0 mi North 12.7 mph - N/A   Overcast
12:15 PM 70.0 °F - 60.8 °F 73% 29.87 in 10.0 mi North 15.0 mph 19.6 mph N/A   Mostly Cloudy
12:35 PM 70.5 °F - 59.9 °F 69% 29.87 in 10.0 mi North 17.3 mph 23.0 mph N/A   Mostly Cloudy
12:55 PM 72.5 °F - 57.6 °F 59% 29.88 in 10.0 mi North 17.3 mph - N/A   Scattered Clouds
1:15 PM 73.0 °F - 56.5 °F 56% 29.89 in 10.0 mi NNE 12.7 mph 20.7 mph N/A   Clear
1:35 PM 73.4 °F - 56.3 °F 55% 29.89 in 10.0 mi North 16.1 mph 21.9 mph N/A   Clear
1:55 PM 74.3 °F - 57.6 °F 56% 29.91 in 10.0 mi NNW 13.8 mph 18.4 mph N/A   Clear
2:15 PM 74.3 °F - 56.3 °F 53% 29.91 in 10.0 mi North 11.5 mph 20.7 mph N/A   Clear
2:35 PM 75.4 °F - 57.2 °F 53% 29.91 in 10.0 mi North 12.7 mph 19.6 mph N/A   Scattered Clouds
2:55 PM 75.7 °F - 57.6 °F 53% 29.91 in 10.0 mi NNW 12.7 mph 20.7 mph N/A   Scattered Clouds
3:15 PM 75.7 °F - 56.7 °F 51% 29.91 in 10.0 mi NNW 17.3 mph 20.7 mph N/A   Scattered Clouds
3:35 PM 75.9 °F - 54.1 °F 47% 29.91 in 10.0 mi NW 13.8 mph 25.3 mph N/A   Scattered Clouds
3:55 PM 76.1 °F - 54.0 °F 46% 29.92 in 10.0 mi NW 16.1 mph 26.5 mph N/A   Scattered Clouds
4:15 PM 75.6 °F - 54.0 °F 47% 29.93 in 10.0 mi NNW 13.8 mph 26.5 mph N/A   Scattered Clouds
4:35 PM 75.4 °F - 51.6 °F 43% 29.93 in 10.0 mi NNW 20.7 mph 26.5 mph N/A   Clear
4:55 PM 75.6 °F - 53.1 °F 45% 29.94 in 10.0 mi NNW 15.0 mph 25.3 mph N/A   Clear
5:15 PM 75.4 °F - 52.3 °F 44% 29.94 in 10.0 mi NNW 17.3 mph 26.5 mph N/A   Scattered Clouds
5:35 PM 75.2 °F - 54.9 °F 49% 29.94 in 10.0 mi NNW 17.3 mph 26.5 mph N/A   Scattered Clouds
5:55 PM 74.5 °F - 54.1 °F 49% 29.94 in 10.0 mi NNW 21.9 mph 26.5 mph N/A   Clear
6:15 PM 73.6 °F - 52.9 °F 48% 29.94 in 10.0 mi NNW 18.4 mph 27.6 mph N/A   Clear
6:35 PM 73.2 °F - 53.4 °F 50% 29.94 in 10.0 mi NNW 18.4 mph 27.6 mph N/A   Clear
6:55 PM 72.5 °F - 52.5 °F 49% 29.95 in 10.0 mi NNW 18.4 mph 26.5 mph N/A   Clear
7:15 PM 71.6 °F - 51.6 °F 49% 29.95 in 10.0 mi NNW 18.4 mph 25.3 mph N/A   Clear
7:35 PM 71.2 °F - 53.2 °F 53% 29.95 in 10.0 mi NNW 11.5 mph 17.3 mph N/A   Clear
7:55 PM 70.7 °F - 52.9 °F 53% 29.96 in 10.0 mi NNW 12.7 mph 18.4 mph N/A   Clear
8:15 PM 70.2 °F - 53.6 °F 56% 29.96 in 10.0 mi NNW 10.4 mph - N/A   Clear
8:35 PM 69.4 °F - 54.3 °F 59% 29.96 in 10.0 mi NNW 6.9 mph - N/A   Clear
8:55 PM 68.5 °F - 54.1 °F 60% 29.97 in 10.0 mi NNW 11.5 mph 17.3 mph N/A   Clear
9:15 PM 67.1 °F - 53.1 °F 61% 29.97 in 10.0 mi NNW 15.0 mph 23.0 mph N/A   Clear
9:35 PM 66.2 °F - 52.3 °F 61% 29.98 in 10.0 mi NNW 11.5 mph 19.6 mph N/A   Clear
9:55 PM 65.3 °F - 52.9 °F 64% 29.99 in 10.0 mi NNW 8.1 mph - N/A   Clear
10:15 PM 64.6 °F - 51.8 °F 63% 30.00 in 10.0 mi NNW 10.4 mph 18.4 mph N/A   Clear
10:35 PM 63.9 °F - 51.8 °F 65% 30.01 in 10.0 mi NW 8.1 mph - N/A   Clear
10:55 PM 63.5 °F - 51.1 °F 64% 30.01 in 10.0 mi NNW 10.4 mph - N/A   Clear
11:15 PM 63.0 °F - 51.3 °F 66% 30.01 in 10.0 mi NW 9.2 mph - N/A   Clear
11:35 PM 62.6 °F - 51.4 °F 67% 30.01 in 10.0 mi NW 8.1 mph - N/A   Clear
11:55 PM 62.2 °F - 51.8 °F 69% 30.01 in 10.0 mi NW 9.2 mph - N/A   Clear